[Iaude] MPEC F44: 2024 FE1 [a=0.99,e=0.22,i=5.5,H=26.1]
    mpec at cfa.harvard.edu 
    mpec at cfa.harvard.edu
       
    Tue Mar 19 19:58:12 EDT 2024
    
    
  
M.P.E.C. 2024-F44                                Issued 2024 March 19, 23:56 UT
     The Minor Planet Electronic Circulars contain information on unusual
         minor planets, routine data on comets and natural satellites,
         and occasional editorial announcements.  They are published
    on behalf of Division F of the International Astronomical Union by the
          Minor Planet Center, Smithsonian Astrophysical Observatory,
                          Cambridge, MA 02138, U.S.A.
			  
             Prepared using the Tamkin Foundation Computer Network
                              MPC at CFA.HARVARD.EDU
            URL https://www.minorplanetcenter.net/    ISSN 1523-6714
                                    2024 FE1                                    
Observations:
     K24F01E* C2024 03 17.42093511 34 11.632+04 31 52.11         20.97wXEF044F51
     K24F01E  C2024 03 17.43309311 34 09.142+04 32 57.91         20.80wXEF044F51
     K24F01E  C2024 03 17.44523411 34 06.684+04 34 03.08         21.04wXEF044F51
     K24F01E  C2024 03 17.45735511 34 04.223+04 35 08.33         21.08wXEF044F51
     K24F01E  C2024 03 17.53508811 33 48.869+04 42 03.04         21.01GVEF044F51
     K24F01E  C2024 03 17.53590411 33 48.707+04 42 07.52         20.83GVEF044F51
     K24F01E 1C2024 03 19.36125211 29 37.373+07 11 36.86         21.08GVEF044T12
     K24F01E 1C2024 03 19.36451211 29 36.819+07 11 51.54         21.17GVEF044T12
     K24F01E  C2024 03 19.43810011 29 24.154+07 17 21.09         20.74GVEF044F51
     K24F01E  C2024 03 19.43892011 29 24.017+07 17 24.71         20.95GVEF044F51
Observer details:
F51 Pan-STARRS 1, Haleakala.  Observers J. Herman, T. Lowe, P. Minguez, A.
    Schultz, I. Smith.  Measurers K. Chambers, T. de Boer, J. Fairlamb, H.
    Gao, M. Huber, C.-C. Lin, E. Magnier, Y. Ramanjooloo, R. Wainscoat, R.
    Weryk.  1.8-m Ritchey-Chretien + CCD.
T12 University of Hawaii 88-inch telescope, Maunakea.  Observer J. Fairlamb.
    Measurers R. Weryk, J. Fairlamb, Y. Ramanjooloo, R. Wainscoat.  2.24-m
    f/10.1 reflector + CCD.
Orbital elements:
2024 FE1                                                 Earth MOID = 0.0277 AU
Epoch 2024 Mar. 31.0 TT = JDT 2460400.5                 MPC                     
M 113.52898              (2000.0)            P               Q                  
n   1.00525888     Peri.  238.11433     +0.59251876     -0.80552183             
a   0.9869249      Node   175.52794     +0.76772867     +0.56185472             
e   0.2206441      Incl.    5.51202     +0.24395533     +0.18829192             
P   0.98           H   26.13          G   0.15           U   7                  
Residuals in seconds of arc
240317 F51  0.1+  0.1-    240317 F51  0.1+  0.1-    240319 F51  0.1-  0.0
240317 F51  0.1-  0.2+    240317 F51  0.0   0.0     240319 F51  0.0   0.0
240317 F51  0.0   0.1-    240319 T12  0.0   0.1+
240317 F51  0.1-  0.0     240319 T12  0.1+  0.0
Ephemeris:
2024 FE1                 a,e,i = 0.99, 0.22, 6                   q = 0.7692
Date    TT    R. A. (2000) Decl.     Delta      r    Elong.  Phase     V
2024 02 18    18 49 11.1 -66 19 06   0.05747 0.9636    63.2   113.8    24.3
...
2024 03 04    12 46 58.1 -33 04 25   0.04174 1.0205   132.9    45.3    21.0
...
2024 03 12    11 52 30.4 -06 00 51   0.05623 1.0489   169.0    10.5    20.6
...
2024 03 18    11 32 43.6 +05 23 02   0.07422 1.0691   173.7     5.9    21.1
2024 03 19    11 30 22.7 +06 44 23   0.07760 1.0723   171.4     8.0    21.3
2024 03 20    11 28 14.4 +07 58 33   0.08106 1.0756   169.2    10.0    21.5
...
2024 03 26    11 18 55.6 +13 25 20   0.1034  1.0942   158.2    19.8    22.4
...
2024 04 03    11 13 12.3 +17 16 24   0.1364  1.1170   147.3    29.0    23.3
...
2024 04 18    11 15 20.5 +19 21 16   0.2060  1.1532   132.5    40.0    24.6
A. U. Tomatic                (C) Copyright 2024 MPC           M.P.E.C. 2024-F44
    
    
More information about the Iaude
mailing list